Regional Weather Roundup
Issued by NWS Little Rock, AR

Home | Current Version | Previous Version | Text Only | Print | Product List | Glossary On
Versions: 1 2 3 4 5 6 7 8 9 10 11 12 13 14 15 16 17 18 19 20 21 22 23 24 25 26 27 28 29 30 31 32 33 34 35 36 37 38 39 40 41 42 43 44 45 46 47 48 49 50
000
ASUS44 KLZK 020005
RWRLZK

WEATHER ROUNDUP FOR ARKANSAS
NATIONAL WEATHER SERVICE LITTLE ROCK AR
700 PM CDT TUE SEP 01 2015

NOTE: "FAIR" INDICATES FEW OR NO CLOUDS BELOW 12,000 FEET WITH NO
SIGNIFICANT WEATHER AND/OR OBSTRUCTIONS TO VISIBILITY.

ARZ001-003-010-029-020100-
NORTHWEST ARKANSAS

CITY           SKY/WX    TMP DP  RH WIND       PRES   REMARKS
FAYETTEVILLE   CLEAR     82  69  64 SE3       30.05F HX  85
6HR MIN TEMP:  82; 6HR MAX TEMP:  86;

FORT SMITH     CLEAR     89  61  38 CALM      29.99S HX  89
6HR MIN TEMP:  88; 6HR MAX TEMP:  93;

HARRISON       CLEAR     82  65  56 S5        30.07S
6HR MIN TEMP:  82; 6HR MAX TEMP:  88;

BENTONVILLE    CLEAR     84  63  48 S8        30.06S HX  85
6HR MIN TEMP:  84; 6HR MAX TEMP:  88;

ROGERS         CLEAR     83  66  56 SE6       30.06F HX  85
6HR MIN TEMP:  83; 6HR MAX TEMP:  88;

SILOAM SPGS    CLEAR     82  64  54 S6        30.03S
6HR MIN TEMP:  82; 6HR MAX TEMP:  88;

HIGHFILL       CLEAR     83  67  58 S7        30.05S HX  85
6HR MIN TEMP:  83; 6HR MAX TEMP:  87;

SPRINGDALE     CLEAR     84  64  51 S8        30.07F HX  86
$$

ARZ004-005-016-020100-
NORTH CENTRAL ARKANSAS

CITY           SKY/WX    TMP DP  RH WIND       PRES   REMARKS
BATESVILLE     MOCLDY    84  72  65 E5        30.05S HX  89
6HR MIN TEMP:  77; 6HR MAX TEMP:  90; 6HR PCP:  0.22;

FLIPPIN        PTCLDY    84  68  58 SE3       30.04R HX  87
6HR MIN TEMP:  84; 6HR MAX TEMP:  91;

MTN HOME       PTCLDY    83  70  64 SE7       30.05R HX  87
6HR MIN TEMP:  83; 6HR MAX TEMP:  89;

$$

ARZ040-041-020100-
WEST CENTRAL ARKANSAS

CITY           SKY/WX    TMP DP  RH WIND       PRES   REMARKS
MENA           CLEAR     88  68  51 SE5       30.05R HX  91
$$

ARZ009-017-025-026-028-020100-
NORTHEAST ARKANSAS

CITY           SKY/WX    TMP DP  RH WIND       PRES   REMARKS
JONESBORO      CLOUDY    83  71  67 SE5       30.05S HX  87
6HR MIN TEMP:  83; 6HR MAX TEMP:  89;

NEWPORT        CLOUDY    82  75  79 E3        30.06R HX  88
6HR MIN TEMP:  82; 6HR MAX TEMP:  91;

WALNUT RIDGE   PTCLDY    84  72  65 S6        30.05R HX  89
6HR MIN TEMP:  84; 6HR MAX TEMP:  90;

BLYTHEVILLE    MOCLDY    84  72  67 SE3       30.06R HX  89
6HR MIN TEMP:  84; 6HR MAX TEMP:  91;

$$

ARZ022-023-033-042-044-020100-
CENTRAL ARKANSAS

CITY           SKY/WX    TMP DP  RH WIND       PRES   REMARKS
LITTLE ROCK    MOCLDY    89  66  46 SE5       30.04R HX  91
6HR MIN TEMP:  88; 6HR MAX TEMP:  93;

N LITTLE ROCK  MOCLDY    87  68  52 S5        30.04R HX  90
6HR MIN TEMP:  86; 6HR MAX TEMP:  92;

JACKSONVILLE   MOCLDY    89  66  46 SE3       30.03S HX  91
6HR MIN TEMP:  89; 6HR MAX TEMP:  93;

SEARCY         CLOUDY    87  73  62 SE5       30.05S HX  94
6HR MIN TEMP:  87; 6HR MAX TEMP:  92;

HOT SPRINGS    PTCLDY    87  65  47 CALM      30.05R HX  89
6HR MIN TEMP:  86; 6HR MAX TEMP:  88;

RUSSELLVILLE   CLEAR     87  64  46 SE5       30.03R HX  88
6HR MIN TEMP:  87; 6HR MAX TEMP:  93;

$$

ARZ036-020100-
EAST ARKANSAS

CITY           SKY/WX    TMP DP  RH WIND       PRES   REMARKS
WEST MEMPHIS   CLOUDY    81  72  74 CALM      30.04S HX  85
6HR MIN TEMP:  81; 6HR MAX TEMP:  91;

$$

ARZ050-053-066-070-073-020100-
SOUTHWEST ARKANSAS

CITY           SKY/WX    TMP DP  RH WIND       PRES   REMARKS
ARKADELPHIA    FAIR      89  67  48 VRB5      30.04R HX  92
6HR MIN TEMP:  88; 6HR MAX TEMP:  95;

CAMDEN         MOCLDY    84  72  65 CALM      30.03R HX  89
TEXARKANA      CLEAR     86  69  56 S9        30.03R HX  90
6HR MIN TEMP:  86; 6HR MAX TEMP:  91;

EL DORADO      MOCLDY    86  67  52 CALM      30.04R HX  89
6HR MIN TEMP:  84; 6HR MAX TEMP:  90;

DE QUEEN       CLEAR     88  68  51 SE7       30.00R HX  91
6HR MIN TEMP:  88; 6HR MAX TEMP:  92;

$$

ARZ056-057-069-020100-
SOUTHEAST ARKANSAS

CITY           SKY/WX    TMP DP  RH WIND       PRES   REMARKS
PINE BLUFF     MOCLDY    87  64  46 SW5       30.04R HX  88
6HR MIN TEMP:  87; 6HR MAX TEMP:  93;

STUTTGART      MOCLDY    88  70  55 CALM      30.04S HX  92
6HR MIN TEMP:  88; 6HR MAX TEMP:  93;

MONTICELLO     CLOUDY    88  71  57 CALM      30.04R HX  94
6HR MIN TEMP:  88; 6HR MAX TEMP:  91;


$$





USA.gov is the U.S. government's official web portal to all federal, state and local government web resources and services.